Flag for Portugal Weather past 2 weeks in Faro, Portugal

Now
73 °F

Clear.


Feels Like: 77 °F
Forecast: 67 / 86 °F
Wind: 3 mph from Northeast

Location: Faro / Aeroporto

Current Time: Aug 5, 2015 at 4:27:18 AM

Latest Report: Aug 5, 2015 at 4:00 AM


Visibility: 10 mi

Pressure: 29.92 "Hg

Humidity: 44%

Dew point: 50 °F

Location of FaroLocation

Historic Weather in Faro — Graph

°F

Faro temperature yesterday

Maximum temperature yesterday: 79 °F (at 3:00 PM)
Minimum temperature yesterday: 64 °F (at 7:30 AM)
Average temperature yesterday: 72 °F

Past Weeks' High & Low Weather Summary

 TemperatureHumidityPressure
High99 °F (Jul 29, 6:00 PM)100% (Aug 3, 7:30 PM)30.04 "Hg (Aug 3, 7:30 PM)
Low64 °F (Jul 25, 6:00 AM)20% (Jul 23, 6:30 PM)29.80 "Hg (Jul 30, 7:30 PM)
Average77 °F60%29.93 "Hg
* Reported Jul 21 3:00 AM — Aug 5 3:00 AM, Faro, Weather by CustomWeather, © 2015

Note: Actual official high and low records may vary slightly from our data, if they occured in-between our weather recording intervals... More about our weather records

Advertising

Faro weather history for previous 24 hours

 ConditionsComfort  
Time TempWeatherWind HumidityBarometerVisibility
3:00 AM
Wed, Aug 5
70 °FClear.5 mph64%29.92 "Hg10 mi
2:30 AM68 °FClear.3 mph69%29.92 "Hg10 mi
2:00 AM70 °FClear.5 mph60%29.92 "Hg10 mi
1:30 AM72 °FClear.3 mph44%29.92 "Hg10 mi
1:00 AM73 °FClear.5 mph41%29.92 "Hg10 mi
12:30 AM75 °FClear.7 mph41%29.95 "Hg10 mi
12:00 AM75 °FClear.8 mph44%29.95 "Hg10 mi
11:30 PM
Tue, Aug 4
75 °FClear.6 mph47%29.95 "Hg10 mi
10:30 PM77 °FClear.10 mph47%29.92 "Hg10 mi
9:30 PM79 °FSunny.9 mph48%29.92 "Hg10 mi
9:00 PM73 °FSunny.8 mph69%29.92 "Hg10 mi
8:30 PM73 °FSunny.12 mph65%29.92 "Hg10 mi
8:00 PM75 °FSunny.13 mph61%29.92 "Hg10 mi
7:30 PM75 °FSunny.14 mph61%29.92 "Hg10 mi
7:00 PM77 °FSunny.15 mph57%29.92 "Hg10 mi
6:30 PM79 °FSunny.14 mph54%29.95 "Hg10 mi
6:00 PM79 °FSunny.15 mph54%29.95 "Hg10 mi
5:30 PM79 °FSunny.14 mph54%29.95 "Hg10 mi
5:00 PM79 °FSunny.15 mph58%29.95 "Hg10 mi
4:30 PM79 °FSunny.15 mph58%29.98 "Hg10 mi
4:00 PM79 °FSunny.16 mph58%29.98 "Hg10 mi
3:30 PM79 °FSunny.20 mph54%29.98 "Hg10 mi
3:00 PM79 °FSunny.17 mph54%30.01 "Hg10 mi
2:30 PM75 °FSunny.14 mph69%30.01 "Hg10 mi
2:00 PM73 °FSunny.13 mph74%30.01 "Hg10 mi
1:30 PM73 °FSunny.10 mph78%30.04 "Hg10 mi
1:00 PM73 °FSunny.9 mph78%30.04 "Hg10 mi
12:30 PM73 °FPassing clouds.8 mph78%30.04 "HgN/A
12:00 PM72 °FPassing clouds.8 mph83%30.04 "HgN/A
11:30 AM73 °FPassing clouds.9 mph78%30.04 "HgN/A
11:00 AM70 °FPassing clouds.8 mph88%30.04 "HgN/A
10:30 AM70 °FPassing clouds.7 mph88%30.04 "HgN/A
10:00 AM68 °FScattered clouds.7 mph94%30.04 "Hg4 mi
9:30 AM66 °FScattered clouds.5 mph100%30.04 "HgN/A
9:00 AM64 °FBroken clouds.3 mph100%30.04 "Hg1 mi
8:30 AM64 °FDense fog.7 mph100%30.04 "Hg0 mi
8:00 AM64 °FFog.5 mph100%30.01 "Hg0 mi
7:30 AM64 °FFog.5 mph100%30.01 "Hg0 mi
7:00 AM66 °FFog.3 mph94%30.01 "Hg0 mi
6:30 AM66 °FFog.5 mph100%29.98 "Hg1 mi
6:00 AM66 °FPassing clouds.2 mph100%30.01 "HgN/A
5:30 AM68 °FPassing clouds.2 mph94%30.01 "HgN/A
5:00 AM68 °FPassing clouds.2 mph94%30.01 "HgN/A
4:30 AM66 °FPassing clouds.5 mph100%30.01 "HgN/A
4:00 AM68 °FPassing clouds.3 mph94%30.01 "HgN/A
Weather by CustomWeather, © 2015

See weather overviewHow to use our weather pages